Skip Page Navigation
NASA JPL Caltech
NASA Logo - Jet Propulsion Laboratory + View the NASA Portal
+ Center for Near-Earth Object Studies
JPL Home Earth Solar System Stars & Galaxies Technology
JPL Solar System Dynamics
BODIES ORBITS EPHEMERIDES TOOLS PHYSICAL DATA DISCOVERY FAQ SITE MAP
IMPORTANT: The SSD Announcement email list is now available. Major changes are coming in the near future, including possible hostname and/or URL changes. To be notified of such changes, subscribe to this email list.

Please visit this page for more details.


JPL Small-Body Database Browser
Search: [ help ]  
212752 (2007 TA10)
Classification: Main-belt Asteroid          SPK-ID: 2212752
Ephemeris | Orbit Diagram | Orbital Elements | Mission Design | Physical Parameters | Discovery Circumstances | Close-Approach Data ]

[ show orbit diagram ]
Orbital Elements at Epoch 2458600.5 (2019-Apr-27.0) TDB
Reference: JPL 9 (heliocentric ecliptic J2000)
 Element Value Uncertainty (1-sigma)   Units 
e .1834865405533033 4.3145e-08  
a 2.644111038408389 2.6672e-08 au
q 2.158952251132032 1.1704e-07 au
i 2.955617855473971 6.5511e-06 deg
node 178.9295066583839 0.00013289 deg
peri 218.0709945096214 0.00013536 deg
M 235.4285158324848 3.0276e-05 deg
tp 2459143.918098765789
(2020-Oct-21.41809877)
0.00013798 TDB
period 1570.42774968157
4.30
2.3762e-05
6.506e-08
d
yr
n .2292369069974699 3.4686e-09 deg/d
Q 3.129269825684747 3.1566e-08 au
  Orbit Determination Parameters
   # obs. used (total)      224  
   data-arc span      8558 days (23.43 yr)  
   first obs. used      1994-10-12  
   last obs. used      2018-03-18  
   planetary ephem.      DE431  
   SB-pert. ephem.      SB431-N16  
   condition code      0  
   norm. resid. RMS      .55026  
   source      ORB  
   producer      Otto Matic  
   solution date      2019-Jul-14 09:39:37  

Additional Information
 Earth MOID = 1.16637 au 
 Jupiter MOID = 2.29351 au 
 T_jup = 3.368 
[ show covariance matrix ]

Ephemeris | Orbit Diagram | Orbital Elements | Mission Design | Physical Parameters | Discovery Circumstances | Close-Approach Data ]

Physical Parameter Table
Parameter Symbol Value Units Sigma Reference Notes
absolute magnitude H 16.9   n/a MPO440127  

212752 (2007 TA10)          Discovered 2007-Oct-06 by LINEAR at Socorro
Reference: 20090409/Numbers.arcLast Updated: 2009-04-10

[ show close-approach data ]
Ephemeris | Orbit Diagram | Orbital Elements | Mission Design | Physical Parameters | Discovery Circumstances | Close-Approach Data ]
ABOUT SSD CREDITS/AWARDS PRIVACY/COPYRIGHT GLOSSARY LINKS
FirstGov
(server date/time)  
NASA Home Page
Site Manager:   Ryan S. Park
Webmaster  Alan B. Chamberlin